Location: Newark
(34.0131°N, 4.3314°W)
Time: 16:11:54
(UTC+00:00)

A-11 Canister half - Pass Details

Date: 23 October 2019
Orbit: 1514 x 1686 km, 47.2° (Epoch: 16 November)

Event Time Altitude Azimuth Distance (km) Brightness Sun altitude
Rises 00:28:49 0° 224° (SW) 4,926 - -66.4°
Reaches altitude 10° 00:32:00 10° 222° (SW) 3,933 - -66.2°
Maximum altitude 00:42:04 75° 139° (SE) 1,699 - -65.4°
Drops below altitude 10° 00:51:53 10° 56° (NE) 3,838 - -64.5°
Exits shadow 00:52:12 - 56° (NE) 3,936 11.4 -64.5°
Sets 00:54:57 0° 55° (NE) 4,803 11.9 -64.2°
